This is the latest recevied weather packets stored in our database for station/object W1HVD. If no packets are shown the sender has not sent any weather packets the latest 10 day(s).
| Time | Temp. | Humidity | Pressure | Rain* | Wind** | Luminosity | Snow |
|---|---|---|---|---|---|---|---|
| 1778216100 | 10° C | 52% | 1007.6 hPa | 0 mm | - | 0 W/m² | - |
| 1778215797 | 10° C | 53% | 1007.6 hPa | 0 mm | - | 0 W/m² | - |
| 1778215494 | 10° C | 54% | 1007.8 hPa | 0 mm | - | 0 W/m² | - |
| 1778215190 | 10° C | 58% | 1007.4 hPa | 0 mm | - | 0 W/m² | - |
| 1778214887 | 10° C | 53% | 1007.7 hPa | 0 mm | - | 0 W/m² | - |
| 1778214583 | 10° C | 52% | 1007.8 hPa | 0 mm | - | 0 W/m² | - |
| 1778214282 | 10° C | 53% | 1007.6 hPa | 0 mm | - | 0 W/m² | - |
| 1778213978 | 10° C | 53% | 1007.7 hPa | 0 mm | - | 0 W/m² | - |
| 1778213675 | 10° C | 57% | 1007.7 hPa | 0 mm | - | 0 W/m² | - |
| 1778213372 | 10° C | 56% | 1007.8 hPa | 0 mm | - | 0 W/m² | - |
| 1778213069 | 10.56° C | 54% | 1007.9 hPa | 0 mm | - | 0 W/m² | - |
| 1778212766 | 10.56° C | 54% | 1007.9 hPa | 0 mm | - | 0 W/m² | - |
| 1778212463 | 10.56° C | 50% | 1008 hPa | 0 mm | - | 0 W/m² | - |
| 1778212159 | 10° C | 56% | 1007.8 hPa | 0 mm | - | 0 W/m² | - |
| 1778211857 | 10° C | 56% | 1007.8 hPa | 0 mm | - | 0 W/m² | - |
| 1778211554 | 10° C | 57% | 1007.8 hPa | 0 mm | - | 0 W/m² | - |
| 1778211252 | 10.56° C | 57% | 1007.6 hPa | 0 mm | - | 0 W/m² | - |
| 1778210949 | 10.56° C | 51% | 1008 hPa | 0 mm | - | 0 W/m² | - |
| 1778210646 | 10.56° C | 50% | 1007.7 hPa | 0 mm | - | 0 W/m² | - |
| 1778210343 | 10° C | 51% | 1007.9 hPa | 0 mm | - | 0 W/m² | - |
| 1778210041 | 10° C | 57% | 1007.8 hPa | 0 mm | - | 0 W/m² | - |
| 1778209736 | 10° C | 56% | 1007.8 hPa | 0 mm | - | 0 W/m² | - |
| 1778209433 | 10° C | 61% | 1008 hPa | 0 mm | - | 0 W/m² | - |
| 1778209131 | 10.56° C | 53% | 1008 hPa | 0 mm | - | 0 W/m² | - |
| 1778208827 | 10° C | 53% | 1008.1 hPa | 0 mm | - | 0 W/m² | - |
* Rain latest hour (hover to see other rain measurements)
** Current wind speed in m/s (hover to see current wind gust speed)